Knox, IN

2:05 AM CDT on May 25, 2017 (GMT -0500)
Starke County

Weather History for KOXI - March, 2013

Change the Weather History Date:

Saturday, March 9, 2013

  Actual Average (KRCR) Record (KRCR)
Temperature  
Mean Temperature 34 °F -  
Max Temperature 41 °F 44 °F 68 °F (2016)
Min Temperature 28 °F 23 °F 19 °F (2014)
Degree Days  
Heating Degree Days 30    
Moisture  
Dew Point 28 °F    
Average Humidity 74    
Maximum Humidity 80    
Minimum Humidity 65    
Precipitation  
Precipitation 0.00 in - - ()
Sea Level Pressure  
Sea Level Pressure 30.13 in    
Wind  
Wind Speed 11 mph (SE)    
Max Wind Speed 17 mph    
Max Gust Speed 23 mph    
Visibility 10 miles    
Events      
Averages and records for this station are not official NWS values.
T = Trace of Precipitation, MM = Missing Value Source: NWS Daily Summary

Daily Weather History Graph

Daily Weather History Graph

Search for Another Location

Airport or City:

Trip Planner

Search our weather history database for the weather conditions in past years. The results will help you decide how hot, cold, wet, or windy it might be!

Date:

Astronomy

Mar. 09, 2013 Rise Set
Actual Time 6:07 AM CST 5:46 PM CST
Civil Twilight 5:40 AM CST 6:14 PM CST
Nautical Twilight 5:08 AM CST 6:46 PM CST
Astronomical Twilight 4:36 AM CST 7:18 PM CST
Moon 4:32 AM CST (3/9) 3:47 PM CST (3/9)
Length of Visible Light 12h 34m
Length of Day
11h 39m
Waning Crescent, 5% of the Moon is Illuminated
Mar 9
Waning Crescent
Mar 11
New
Mar 19
First Quarter
Mar 27
Full
Apr 2
Last Quarter

Hourly Weather History & Observations

Time (CST) Temp. Windchill Dew Point Humidity Pressure Visibility Wind Dir Wind Speed Gust Speed Precip Events Conditions
12:15 AM 29.8 °F 22.2 °F 22.1 °F 73% 30.34 in 10.0 mi SE 8.1 mph - N/A   Clear
12:35 AM 29.7 °F 21.3 °F 21.9 °F 73% 30.33 in 10.0 mi ESE 9.2 mph - N/A   Clear
12:55 AM 29.3 °F 20.8 °F 21.9 °F 74% 30.32 in 10.0 mi SE 9.2 mph - N/A   Clear
1:15 AM 28.8 °F 20.9 °F 21.7 °F 75% 30.32 in 10.0 mi SE 8.1 mph - N/A   Clear
1:35 AM 28.8 °F 20.9 °F 21.7 °F 75% 30.31 in 10.0 mi SE 8.1 mph - N/A   Clear
1:55 AM 28.4 °F 19.7 °F 21.7 °F 76% 30.30 in 10.0 mi SE 9.2 mph - N/A   Clear
2:15 AM 28.4 °F 19.1 °F 22.1 °F 77% 30.28 in 10.0 mi ESE 10.4 mph - N/A   Clear
2:35 AM 29.3 °F 20.8 °F 22.5 °F 76% 30.28 in 10.0 mi SE 9.2 mph - N/A   Clear
3:15 AM 29.3 °F 21.5 °F 22.6 °F 76% 30.28 in 10.0 mi SE 8.1 mph - N/A   Clear
3:35 AM 28.2 °F 21.0 °F 22.1 °F 78% 30.28 in 10.0 mi SE 6.9 mph - N/A   Clear
3:55 AM 28.0 °F 21.7 °F 22.5 °F 80% 30.27 in 10.0 mi SE 5.8 mph - N/A   Clear
4:15 AM 28.8 °F 20.9 °F 23.2 °F 80% 30.26 in 10.0 mi SE 8.1 mph - N/A   Clear
4:35 AM 30.0 °F 20.0 °F 24.3 °F 79% 30.25 in 10.0 mi ESE 12.7 mph - N/A   Clear
4:55 AM 31.5 °F 21.4 °F 24.8 °F 76% 30.25 in 10.0 mi SE 13.8 mph - N/A   Clear
5:15 AM 31.6 °F 22.6 °F 25.3 °F 78% 30.25 in 10.0 mi SE 11.5 mph - N/A   Clear
5:35 AM 31.8 °F 21.8 °F 25.7 °F 78% 30.24 in 10.0 mi SE 13.8 mph - N/A   Clear
5:55 AM 32.2 °F 22.7 °F 26.2 °F 79% 30.24 in 10.0 mi SE 12.7 mph - N/A   Clear
6:15 AM 32.5 °F 24.2 °F 26.6 °F 79% 30.25 in 10.0 mi SSE 10.4 mph - N/A   Scattered Clouds
6:55 AM 32.9 °F 24.1 °F 26.8 °F 78% 30.26 in 10.0 mi SSE 11.5 mph - N/A   Overcast
7:15 AM 32.9 °F 25.3 °F 27.0 °F 79% 30.27 in 10.0 mi SSE 9.2 mph - N/A   Mostly Cloudy
7:35 AM 33.1 °F 25.5 °F 27.1 °F 79% 30.26 in 10.0 mi SSE 9.2 mph - N/A   Overcast
7:55 AM 33.1 °F 24.4 °F 27.5 °F 80% 30.26 in 10.0 mi SE 11.5 mph - N/A   Overcast
8:15 AM 33.4 °F 25.4 °F 27.5 °F 79% 30.25 in 10.0 mi SSE 10.4 mph - N/A   Overcast
8:35 AM 34.0 °F 25.5 °F 27.7 °F 78% 30.25 in 10.0 mi SSE 11.5 mph - N/A   Overcast
9:15 AM 34.3 °F 26.5 °F 28.2 °F 78% 30.24 in 10.0 mi SSE 10.4 mph - N/A   Overcast
9:35 AM 34.7 °F 27.5 °F 28.4 °F 78% 30.24 in 10.0 mi SE 9.2 mph - N/A   Overcast
9:55 AM 35.4 °F 27.3 °F 28.4 °F 76% 30.23 in 10.0 mi SSE 11.5 mph - N/A   Mostly Cloudy
10:15 AM 36.0 °F 27.1 °F 28.4 °F 74% 30.22 in 10.0 mi SE 13.8 mph - N/A   Scattered Clouds
10:35 AM 36.5 °F 27.0 °F 28.4 °F 72% 30.19 in 10.0 mi SE 16.1 mph 19.6 mph N/A   Overcast
10:55 AM 37.4 °F 29.3 °F 28.4 °F 70% 30.18 in 10.0 mi SE 12.7 mph - N/A   Mostly Cloudy
11:15 AM 37.9 °F 30.5 °F 28.4 °F 69% 30.17 in 10.0 mi SE 11.5 mph - N/A   Scattered Clouds
11:35 AM 38.5 °F 31.6 °F 28.8 °F 68% 30.17 in 10.0 mi SE 10.4 mph - N/A   Scattered Clouds
11:55 AM 39.2 °F 30.2 °F 28.4 °F 65% 30.16 in 10.0 mi SSE 17.3 mph 21.9 mph N/A   Clear
12:15 PM 39.2 °F 30.8 °F 28.2 °F 65% 30.15 in 10.0 mi SSE 15.0 mph 23.0 mph N/A   Clear
12:35 PM 39.2 °F 31.6 °F 28.6 °F 66% 30.14 in 10.0 mi SSE 12.7 mph - N/A   Clear
1:15 PM 39.2 °F 30.5 °F 29.1 °F 67% 30.11 in 10.0 mi SSE 16.1 mph - N/A   Scattered Clouds
1:35 PM 39.2 °F 31.6 °F 29.5 °F 68% 30.10 in 10.0 mi SSE 12.7 mph - N/A   Mostly Cloudy
1:55 PM 39.2 °F 30.5 °F 29.7 °F 69% 30.08 in 10.0 mi SE 16.1 mph - N/A   Overcast
2:15 PM 39.6 °F 31.7 °F 30.0 °F 69% 30.07 in 10.0 mi SSE 13.8 mph - N/A   Overcast
2:35 PM 39.7 °F 31.9 °F 30.2 °F 69% 30.08 in 10.0 mi SSE 13.8 mph - N/A   Overcast
2:55 PM 39.4 °F 31.1 °F 30.9 °F 72% 30.06 in 10.0 mi SSE 15.0 mph - N/A   Overcast
3:15 PM 39.6 °F 31.3 °F 31.1 °F 72% 30.04 in 10.0 mi SE 15.0 mph 19.6 mph N/A   Overcast
3:35 PM 40.1 °F 31.3 °F 31.1 °F 70% 30.04 in 10.0 mi SSE 17.3 mph 20.7 mph N/A   Overcast
3:55 PM 40.1 °F 32.0 °F 31.3 °F 71% 30.03 in 10.0 mi SE 15.0 mph - N/A   Mostly Cloudy
4:15 PM 39.7 °F 32.7 °F 31.6 °F 73% 30.02 in 10.0 mi SE 11.5 mph - N/A   Mostly Cloudy
4:35 PM 39.4 °F 32.3 °F 31.8 °F 74% 30.01 in 10.0 mi SE 11.5 mph - N/A   Scattered Clouds
4:55 PM 39.4 °F 32.3 °F 32.0 °F 75% 30.01 in 10.0 mi SE 11.5 mph - N/A   Mostly Cloudy
5:15 PM 39.2 °F 31.2 °F 32.0 °F 75% 30.00 in 10.0 mi SE 13.8 mph - N/A   Mostly Cloudy
5:35 PM 39.2 °F 31.6 °F 32.0 °F 75% 29.99 in 10.0 mi SE 12.7 mph 18.4 mph N/A   Scattered Clouds
5:55 PM 39.0 °F 31.4 °F 32.0 °F 76% 29.99 in 10.0 mi SE 12.7 mph - N/A   Mostly Cloudy
6:15 PM 39.0 °F 31.0 °F 32.0 °F 76% 29.98 in 10.0 mi SE 13.8 mph - N/A   Scattered Clouds
6:35 PM 39.0 °F 30.3 °F 32.0 °F 76% 29.97 in 10.0 mi SE 16.1 mph - N/A   Scattered Clouds
6:55 PM 38.8 °F 30.0 °F 32.2 °F 77% 29.97 in 10.0 mi SE 16.1 mph 20.7 mph N/A   Scattered Clouds
7:15 PM 39.2 °F 30.5 °F 32.5 °F 77% 29.95 in 10.0 mi SE 16.1 mph - N/A   Scattered Clouds
7:35 PM 39.6 °F 31.0 °F 32.7 °F 76% 29.95 in 10.0 mi SSE 16.1 mph 20.7 mph N/A   Scattered Clouds
8:35 PM 40.5 °F 32.5 °F 32.9 °F 74% 29.93 in 10.0 mi SSE 15.0 mph - N/A   Clear
8:55 PM 39.9 °F 32.1 °F 32.9 °F 76% 29.94 in 10.0 mi SSE 13.8 mph - N/A   Clear
9:15 PM 39.7 °F 31.9 °F 32.9 °F 77% 29.93 in 10.0 mi SSE 13.8 mph - N/A   Clear
9:35 PM 39.9 °F 31.8 °F 32.9 °F 76% 29.93 in 10.0 mi SSE 15.0 mph - N/A   Clear
9:55 PM 40.1 °F 31.6 °F 32.9 °F 75% 29.92 in 10.0 mi SSE 16.1 mph - N/A   Clear
10:15 PM 40.6 °F 33.4 °F 32.5 °F 73% 29.92 in 10.0 mi SSE 12.7 mph - N/A   Scattered Clouds
10:35 PM 41.2 °F 34.1 °F 32.5 °F 71% 29.92 in 10.0 mi SSE 12.7 mph - N/A   Mostly Cloudy
10:55 PM 41.5 °F 34.6 °F 32.7 °F 71% 29.91 in 10.0 mi SSE 12.7 mph - N/A   Overcast
11:35 PM 41.2 °F 34.5 °F 32.5 °F 71% 29.90 in 10.0 mi SSE 11.5 mph - N/A   Scattered Clouds